This is the latest recevied weather packets stored in our database for station/object IT9IJI-15. If no packets are shown the sender has not sent any weather packets the latest 10 day(s).
| Time | Temp. | Humidity | Pressure | Rain* | Wind** | Luminosity | Snow |
|---|---|---|---|---|---|---|---|
| 1788005637 | 30.56° C | 48% | 897 hPa | - | - | - | - |
| 1788004820 | 42.22° C | 28% | 899.4 hPa | - | - | - | - |
| 1788003920 | 42.78° C | 27% | 896.5 hPa | - | - | - | - |
| 1788003020 | 42.78° C | 26% | 896.7 hPa | - | - | - | - |
| 1788002120 | 43.33° C | 25% | 896.4 hPa | - | - | - | - |
| 1788001220 | 43.33° C | 24% | 896.5 hPa | - | - | - | - |
| 1788000320 | 43.33° C | 23% | 896.6 hPa | - | - | - | - |
| 1787999426 | 43.33° C | 23% | 896.7 hPa | - | - | - | - |
| 1787998520 | 43.33° C | 23% | 896.8 hPa | - | - | - | - |
| 1787997620 | 43.33° C | 23% | 896.6 hPa | - | - | - | - |
| 1787996720 | 43.33° C | 23% | 896.8 hPa | - | - | - | - |
| 1787995820 | 42.78° C | 23% | 896.8 hPa | - | - | - | - |
| 1787994920 | 42.78° C | 22% | 897 hPa | - | - | - | - |
| 1787994020 | 42.78° C | 23% | 896.9 hPa | - | - | - | - |
| 1787993120 | 43.33° C | 23% | 896.8 hPa | - | - | - | - |
| 1787992223 | 42.78° C | 23% | 896.6 hPa | - | - | - | - |
| 1787991319 | 42.78° C | 23% | 896.5 hPa | - | - | - | - |
| 1787990428 | 41.11° C | 26% | 896.4 hPa | - | - | - | - |
| 1787989519 | 28.33° C | 48% | 896.2 hPa | - | - | - | - |
| 1787933657 | 42.78° C | 26% | 897.8 hPa | - | - | - | - |
| 1787932757 | 42.78° C | 25% | 897.8 hPa | - | - | - | - |
| 1787930960 | 37.22° C | 25% | 891.2 hPa | - | - | - | - |
| 1787930033 | 43.33° C | 25% | 897.8 hPa | - | - | - | - |
| 1787929133 | 43.33° C | 26% | 897.9 hPa | - | - | - | - |
| 1787928240 | 43.33° C | 25% | 897.9 hPa | - | - | - | - |
* Rain since midnight (hover to see other rain measurements)
** Current wind speed in m/s (hover to see current wind gust speed)